Regional Weather Roundup
Issued by NWS

Home | Current Version | Previous Version | Graphics & Text | Print | Product List | Glossary On
Versions: 1 2 3 4 5 6 7 8 9 10 11 12 13 14 15 16 17 18 19 20 21 22 23 24 25 26 27 28 29 30 31 32 33 34 35 36 37 38 39 40 41 42 43 44 45 46 47 48 49 50
000
ASUS43 KOAX 201110
RWRNE

WEATHER ROUNDUP FOR NEBRASKA
NATIONAL WEATHER SERVICE OMAHA NE
500 AM CST FRI JAN 20 2017

NOTES: SATELLITE DATA IS BEING USED TO AUGMENT CLOUD COVER ABOVE
       12000 FEET.
       "FAIR" INDICATES FEW OR NO CLOUDS BELOW 12,000 FEET WITH NO
       SIGNIFICANT WEATHER AND/OR OBSTRUCTIONS TO VISIBILITY.

  * THESE STATIONS DO NOT REPORT WEATHER SUCH AS RAIN...SNOW OR FOG.

NEZ001>004-019>022-054>056-201200-
NEBRASKA PANHANDLE

CITY           SKY/WX    TMP DP  RH WIND       PRES   REMARKS
SCOTTSBLUFF    CLOUDY    28  22  78 NW3       29.45F
ALLIANCE       CLOUDY    18  15  88 NW3       29.43F
CHADRON        CLOUDY    20  16  84 SW9       29.42F WCI   9
KIMBALL        CLOUDY    32  27  81 NW10      29.45F WCI  24
SIDNEY         CLOUDY    29  23  78 W9        29.44F WCI  20
$$

NEZ057>060-069>072-079>082-201200-
SOUTHWEST NEBRASKA

CITY           SKY/WX    TMP DP  RH WIND       PRES   REMARKS
NORTH PLATTE   CLOUDY    34  33  96 W6        29.48F WCI  29
IMPERIAL       FOG       28  28 100 CALM      29.48S VSB 3/4
LEXINGTON      CLOUDY    35  34  96 CALM      29.48F FOG
MCCOOK         CLOUDY    34  34 100 CALM      29.49F FOG
OGALLALA       FOG       28  27  97 CALM      29.47F VSB 1/4
$$

NEZ005>010-023>029-035>040-094-201200-
NORTH CENTRAL NEBRASKA

CITY           SKY/WX    TMP DP  RH WIND       PRES   REMARKS
VALENTINE      CLOUDY    19  16  88 W6        29.39F WCI  11
AINSWORTH      CLEAR     29  28  97 SW7       29.40F WCI  22
BROKEN BOW     MOCLDY    34  34 100 SW9       29.47S FOG     WCI  27
O`NEILL        CLEAR     35  34  97 S5        29.43F WCI  31
ORD            FOG       35  33  92 SW9       29.45F VSB 3/4 WCI  28
THEDFORD       CLEAR     30  30  98 SW12      29.45R WCI  21
$$

NEZ041-046>049-061>064-073>077-083>087-201200-
SOUTH CENTRAL NEBRASKA

CITY           SKY/WX    TMP DP  RH WIND       PRES   REMARKS
GRAND ISLAND   FOG       36  36 100 S8        29.51R VSB 1/2 WCI  30
AURORA         FOG       36  36 100 S3        29.51R VSB 1/2
HASTINGS       FOG       37  36  96 S3        29.51R VSB 1/4
HEBRON         FOG       38  38  99 CALM      29.54S VSB 3/4
HOLDREGE       FOG       35  34  97 S3        29.50S VSB 1/2
KEARNEY *      CLOUDY    36  34  93 CALM      29.50S VSB 1/2
YORK           FOG       37  37 100 CALM      29.50F VSB 1/2
$$

NEZ011>018-030>034-042>045-201200-
NORTHEAST NEBRASKA

CITY           SKY/WX    TMP DP  RH WIND       PRES   REMARKS
NORFOLK        CLOUDY    37  36  96 SE9       29.48F FOG     WCI  30
ALBION         FOG      N/A N/A N/A SE6       29.47F VSB 1/4
BLAIR          CLOUDY    40  39  98 SE7       29.56R FOG     WCI  35
FREMONT        FOG       37  37 100 CALM      29.55S VSB 1/4
TEKAMAH        FOG       35  34  96 SW6       29.56F VSB 1/2 WCI  30
WAYNE          CLOUDY    38  37  99 S9        29.51F WCI  31
$$

NEZ050>053-065>068-078-088>093-201200-
SOUTHEAST NEBRASKA

CITY           SKY/WX    TMP DP  RH WIND       PRES   REMARKS
LINCOLN        FOG       38  38 100 N5        29.54F VSB 1/2 WCI  34
OMAHA EPPLEY   CLOUDY    38  35  89 S3        29.58S FOG
BEATRICE       CLOUDY    38  38 100 SE3       29.54R FOG
FALLS CITY     FOG       40  40 100 E6        29.56F VSB 1
NEBRASKA CITY  LGT RAIN  37  37 100 NE3       29.55F VSB 1/4
PLATTSMOUTH    FOG       38  37  93 CALM      29.57F VSB 1/2
$$

NEZ044-045-051>053-067-201200-
OMAHA AREA

CITY           SKY/WX    TMP DP  RH WIND       PRES   REMARKS
OMAHA EPPLEY   CLOUDY    38  35  89 S3        29.58S FOG
BLAIR          CLOUDY    40  39  98 SE7       29.56R FOG     WCI  35
FREMONT        FOG       37  37 100 CALM      29.55S VSB 1/4
MILLARD        CLOUDY    40  40  97 E3        29.56F FOG
OFFUTT AFB     FOG       38  38 100 NE5       29.57S VSB 1/2 WCI  34
PLATTSMOUTH    FOG       38  37  93 CALM      29.57F VSB 1/2
WAHOO          FOG       37  36  97 CALM      29.54F VSB 1/4
$$



USA.gov is the U.S. government's official web portal to all federal, state and local government web resources and services.